Flight Track Log - Related Links

Times and Time Zones

All times are in EDT time to prevent confusion due to time zone crossing. See the WWW683 flight status page for this flight to view local times or setup timezone preferences in your user account.


Time Position Orientation Groundspeed Altitude Reporting Facility
EDT Latitude Longitude Course Direction KTS MPH feet Rate Location/Type
Thu 08:50:07 AM 37.7272 -116.7408 188° South 264 304 11,000  Level Los Angeles Center
Thu 08:51:07 AM 37.6392 -116.6839 153° Southeast 347 399 13,900 3,350 Climbing Los Angeles Center
Thu 08:52:07 AM 37.5464 -116.6247 153° Southeast 369 425 17,700 2,529 Climbing Los Angeles Center
Thu 08:53:08 AM 37.4453 -116.5594 153° Southeast 398 458 19,000 645 Climbing Los Angeles Center
Thu 08:54:00 AM 37.3532 -116.3493 153° Southeast  Level Estimated
Thu 08:54:08 AM 37.3442 -116.4961 154° Southeast 406 467 19,000  Level Los Angeles Center
Thu 08:55:00 AM 37.2604 -116.3649 188° South  Level FlightAware Approximate
Thu 08:55:09 AM 37.2419 -116.4361 155° Southeast 405 466 19,000  Level Los Angeles Center
Thu 08:56:09 AM 37.1411 -116.3747 154° Southeast 403 464 19,000  Level Los Angeles Center
Thu 08:57:10 AM 37.0394 -116.3133 154° Southeast 404 465 19,000  Level Los Angeles Center
Thu 08:58:10 AM 36.9381 -116.2531 155° Southeast 404 465 19,000  Level Los Angeles Center
Thu 08:59:11 AM 36.8750 -116.1419 125° Southeast 398 458 19,000  Level Los Angeles Center
Thu 09:00:11 AM 36.8178 -116.0256 122° Southeast 395 455 19,000  Level Los Angeles Center
Thu 09:01:12 AM 36.7614 -115.9094 121° Southeast 392 451 19,000 -99 Level Los Angeles Center
Thu 09:02:12 AM 36.7097 -115.8025 121° Southeast 394 453 18,800 -645 Descending Los Angeles Center
Thu 09:03:13 AM 36.6531 -115.6867 121° Southeast 391 450 17,700 -2,133 Descending Los Angeles Center
Thu 09:03:42 AM 36.6119 -115.6142 125° Southeast 381 438 15,600 -3,000 Descending Los Angeles Center
Thu 09:04:13 AM 36.5978 -115.5728 113° Southeast 387 445 14,700 -2,137 Descending Los Angeles Center
Thu 09:04:55 AM 36.5400 -115.4986 134° Southeast 368 423 13,000 -1,672 Descending Los Angeles Center
Thu 09:05:14 AM 36.5283 -115.4806 129° Southeast 372 428 13,000 -787 Level Los Angeles Center
Thu 09:05:56 AM 36.4678 -115.4233 143° Southeast 302 348 12,200 -1,200 Descending Los Angeles Center
Thu 09:06:14 AM 36.4608 -115.4117 127° Southeast 333 383 11,800 -2,300 Descending Los Angeles Center
Thu 09:06:56 AM 36.3992 -115.3550 144° Southeast 317 365 9,900 -1,967 Descending Los Angeles Center
Thu 09:07:15 AM 36.3914 -115.3442 132° Southeast 318 366 9,800 -2,066 Descending Los Angeles Center
Thu 09:07:57 AM 36.3342 -115.2936 145° Southeast 287 330 7,800 -2,262 Descending Los Angeles Center
Thu 09:08:16 AM 36.3272 -115.2831 129° Southeast 297 342 7,500 -2,066 Descending Los Angeles Center
Thu 09:08:58 AM 36.2728 -115.2392 147° Southeast 274 315 5,700 -2,200 Descending Los Angeles Center
Thu 09:09:16 AM 36.2650 -115.2278 130° Southeast 283 326 5,300 -1,200 Descending Los Angeles Center
Thu 09:09:58 AM 36.2125 -115.1897 150° Southeast 252 290 4,500 -787 Descending Los Angeles Center
Thu 09:10:17 AM 36.2056 -115.1783 127° Southeast 270 311 4,500 -295 Level Los Angeles Center
Thu 09:10:59 AM 36.1725 -115.1550 150° Southeast 157 181 4,200 -393 Descending Los Angeles Center
Thu 09:11:18 AM 36.1686 -115.1472 122° Southeast 200 230 4,100 -1,063 Descending Los Angeles Center
Thu 09:12:18 AM 36.1308 -115.1383 169° South 159 183 2,800 -1,091 Descending Los Angeles Center
Thu 09:13:19 AM 36.0922 -115.1592 204° Southwest 137 158 1,900 -885 Descending Los Angeles Center
Thu 09:15:00 AM 36.0801 -115.1523 95° East  Level Estimated

Login

Don't have an account? Register now (free) for customized features, flight alerts, and more!